Location: Unspecified
(0.0000°N, 0.0000°E)
Time: 18:02:23
(UTC+00:00)

Envisat - Pass Details

Date: 12 January 2018
Orbit: 764 x 766 km, 98.2° (Epoch: 20 April)

Event Time Altitude Azimuth Distance (km) Brightness Sun altitude
Rises 20:02:46 0° 169° (S) 3,228 6.4 -26.4°
Reaches altitude 10° 20:05:05 10° 170° (S) 2,300 5.6 -26.9°
Enters shadow 20:09:31 68° 183° (S) 819 3.1 -28.0°
